カタログに戻る

STARLINK-34156

運用中通信VLEO
NORAD 64108·PAYLOAD·🇺🇸 United States

打ち上げ May 23, 2025 から Vandenberg Space Force Base

Loading…

次のパス (今後24時間)

TLE

最新Source: CelesTrak SupGP

元期: Sep 14, 2026, 22:52 UTC

1 64108C 25110N   26257.95326389  .00010817  00000+0  34776-3 0  2578
2 64108  53.1593 226.2079 0001579  98.4080 128.4082 15.31704693    11

AllMySatでSTARLINK-34156をリアルタイム追跡

Download on the App Store